Location: Observatoire POLARIS
(46.3550°N, 73.3861°W)
Time: 12:38:02
(UTC-04:00)

OTV 5 (USA 277) - Visible Passes

Search period start: 22 July 2018 00:00
Search period end: 01 August 2018 00:00
Orbit: 312 x 321 km, 54.5° (Epoch: 05 July)

Date Brightness Start Highest point End Pass type
(mag) Time Alt. Az. Time Alt. Az. Time Alt. Az.
29 Jul ? 04:36:13 10° S 04:37:59 16° SE 04:39:45 10° E visible
30 Jul ? 04:49:41 10° SSW 04:52:15 38° SE 04:54:48 10° ENE visible
31 Jul ? 03:32:35 10° SE 03:32:45 10° SE 03:33:10 10° ESE visible
